Flag for Canada Weather past 2 weeks in Greater Sudbury, Ontario, Canada

Now
63 °F

Mostly cloudy.


Feels Like: 63 °F
Forecast: 56 / 74 °F
Wind: 9 mph from East

Location: Sudbury

Current Time: Aug 20, 2014 at 1:29:29 PM

Latest Report: Aug 20, 2014 at 12:00 PM


Visibility: 12 mi

Pressure: 29.92 "Hg

Humidity: 88%

Dew point: 59 °F

Location of Greater SudburyLocation

Historic Weather in Greater Sudbury — Graph

°F

Greater Sudbury temperature yesterday

Maximum temperature yesterday: 66 °F (at 1:00 PM)
Minimum temperature yesterday: 54 °F (at 4:00 AM)
Average temperature yesterday: 60 °F

Past Weeks' High & Low Weather Summary

 TemperatureHumidityPressure
High82 °F (Aug 9, 5:00 PM)100% (Aug 7, 1:00 AM)30.21 "Hg (Aug 7, 1:00 AM)
Low43 °F (Aug 18, 5:00 AM)41% (Aug 5, 3:00 PM)29.57 "Hg (Aug 13, 4:00 AM)
Average61 °F80%29.96 "Hg
* Reported Aug 5 12:00 Noon — Aug 20 12:00 Noon, Greater Sudbury, Weather by CustomWeather, © 2014

Note: Actual official high and low records may vary slightly from our data, if they occured in-between our weather recording intervals... More about our weather records

Advertising

Greater Sudbury weather history for previous 24 hours

 ConditionsComfort  
Time TempWeatherWind HumidityBarometerVisibility
12:00 PM
Aug 20
63 °FMostly cloudy.9 mph88%29.92 "Hg12 mi
11:00 AM61 °FDrizzle. Cloudy.12 mph94%29.91 "Hg12 mi
10:00 AM59 °FDrizzle. Mostly cloudy.13 mph100%29.90 "Hg12 mi
9:00 AM59 °FLow clouds.12 mph94%29.90 "Hg12 mi
8:00 AM59 °FLow clouds.12 mph94%29.88 "Hg12 mi
7:00 AM59 °FOvercast.8 mph100%29.87 "Hg12 mi
6:00 AM59 °FOvercast.10 mph100%29.85 "Hg15 mi
5:00 AM59 °FOvercast.9 mph100%29.85 "Hg15 mi
4:00 AM59 °FOvercast.9 mph100%29.84 "Hg15 mi
3:00 AM59 °FMostly cloudy.9 mph100%29.84 "Hg10 mi
2:00 AM59 °FRain showers. Mostly cloudy.12 mph100%29.85 "Hg8 mi
1:00 AM61 °FSprinkles. Overcast.10 mph88%29.84 "Hg10 mi
12:00 AM59 °FLight rain. Mostly cloudy.10 mph94%29.84 "Hg15 mi
11:00 PM
Aug 19
61 °FLight rain. Overcast.8 mph94%29.86 "Hg6 mi
10:00 PM59 °FLight rain. Overcast.6 mph100%29.85 "Hg12 mi
9:00 PM61 °FLight rain. Overcast.3 mph94%29.86 "Hg10 mi
8:00 PM63 °FLight rain. Mostly cloudy.5 mph83%29.85 "Hg10 mi
7:00 PM66 °FMore clouds than sun.7 mph78%29.84 "Hg15 mi
6:00 PM66 °FMostly cloudy.8 mph78%29.84 "Hg15 mi
5:00 PM66 °FMore clouds than sun.10 mph68%29.84 "Hg15 mi
4:00 PM66 °FCloudy.12 mph73%29.85 "Hg15 mi
3:00 PM64 °FSprinkles. Cloudy.7 mph83%29.85 "Hg15 mi
2:00 PM63 °FSprinkles. Cloudy.8 mph88%29.87 "Hg12 mi
1:00 PM66 °FScattered showers. Mostly cloudy.9 mph73%29.88 "Hg12 mi
Weather by CustomWeather, © 2014

See weather overviewHow to use our weather pages